カタログに戻る

STARLINK-32324

運用中通信VLEO
NORAD 61863·PAYLOAD·🇺🇸 United States

打ち上げ Nov 7, 2024 から Cape Canaveral Space Force Station

Loading…

次のパス (今後24時間)

TLE

最新Source: CelesTrak SupGP

元期: Sep 15, 2026, 02:36 UTC

1 61863C 24202U   26258.10881944 -.00037803  00000+0 -13694-2 0  2587
2 61863  43.0023 248.4708 0001438 268.5625 115.3562 15.27593579    18

AllMySatでSTARLINK-32324をリアルタイム追跡

Download on the App Store